User: anonymous   Login
Location: C�an Torras
(41.5052°N, 1.9280°E)
Time: 20:03:53
(UTC+00:00)
Language:

Cosmos 1354 Rocket - Orbit

View from above orbital plane
View from above orbital plane
View from above satellite
View from above satellite

Ground track
Ground track

The orbit data is extracted from the following two-line orbital elements,

1 13149U 82037B   21104.56057849  .00000049  00000-0  26157-4 0  9998
2 13149  74.0429 211.8536 0012087  71.5058 288.7406 14.35395117 37785
Epoch (UTC): 14 April 2021 13:27:13
Eccentricity: 0.0012087
inclination: 74.0429°
perigee height: 765 km
apogee height: 782 km
right ascension of ascending node: 211.8536°
argument of perigee: 71.5058°
revolutions per day: 14.35395117
mean anomaly at epoch: 288.7406°
orbit number at epoch: 3778

The dashed part of the orbit path shows where the satellite is in the earth's shadow,  

DLR